Location: Brooks Farm Pond
(32.9618°N, 86.0700°W)
Time: 23:00:54
(UTC+00:00)

GPS 2-04 Rocket1 - Pass Details

Date: 29 October 2020
Orbit: 417 x 546 km, 35.6° (Epoch: 28 November)

Event Time Altitude Azimuth Distance (km) Brightness Sun altitude
Rises 23:29:18 0° 251° (WSW) 2,584 8.5 -7.8°
Reaches altitude 10° 23:31:29 10° 250° (WSW) 1,722 7.0 -8.2°
Maximum altitude 23:35:27 82° 164° (SSE) 532 2.7 -9.0°
Enters shadow 23:39:04 13° 76° (ENE) 1,584 4.5 -9.8°
